Dean International
Flight School

Career Spotlight

Mika

Mika

Congratulations to Mika from Khazakstan. She recently sent us this photo of her flying an Airbus airliner.

More...
Mika's Success Story
close

Congratulations to Mika from Khazakstan. She recently sent us this photo of her flying an Airbus airliner.

Mario

Mario

My dreams could not have been realized if I wouldn't have been part of the Dean International family.

More...
Mario's Success Story
close

"My dreams could not have been realized if I wouldn't have been part of the Dean International family. Thank you Robert, thanks to all my co-workers, and thanks to all of my students!"

Fernando

Fernando

I am now working as a First Officer at TACA and am enjoying every moment of it.

More...
Fernando's Success Story
close

"Will never forget my time of flight training at Dean International. I am now working as a First Officer at TACA and am enjoying every moment of it."

Alvaro

Alvaro

Because of the flight time I was able to built while instructing, I got the experience needed to apply to an airline in Colombia.

More...
Alvaro's Success Story
close

Dean alumnus Alvaro Londoño currently flies with Tampa Cargo. He says of his experience at Dean: "I want to take this opportunity to thank you for giving me the chance to build my experience and expand my knowledge in Dean International. Because of the flight time I was able to built flight instructing, I got the experience needed to apply to an airline in Colombia."

Ralph

Ralph

Every Aruban student of Dean International has made it into Tiara Air Aruba, that is very nice.

More...
Ralph's Success Story
close

"Next to me is my Co-Pilot, Elison. This picture was taken on our first flight together, which was almost exactly 5 years after I finished at Dean International. [...] Every Aruban student of Dean International has made it into Tiara Air Aruba. [...] The future looks bright here in Aruba."

Rohaan

Rohaan

The [..] staff will all work diligently to help you finish your certificates as safely and efficiently as possible.

More...
Rohaan's Success Story
close

After receiving very hard times from other flight schools [...], I came to Dean International where Robert Dean personally sat down with me and gave me a financial and chronological look into how much remained to finish my private pilot certificate. Through his hard efforts as an instructor and mentor, I was able to finish my private pilot certificate within one week.

Welcome to Dean International

In over two decades, Dean International has educated over 7,000 pilots from all over the world, including over 1,000 students from India alone. By offering a great training experience, a friendly service staff, an ample variety of aircraft, and by improving constantly, we have become one of the largest, most prestigious FAA 141-approved flight schools in North America. Located in Miami, Florida, USA, our flight school offers an ideal location for year-round, "learn to fly" weather, flight training. Dean International is not only well-equipped to provide services to professional trainees but also caters to General Aviation renters. Visit or contact our headquarters at Kendall-Tamiami Executive Airport located in Miami, FL today to learn more about us, or simply read more about our programs if you are an international student interested in joining our school.

Local Airport Information
TAF FOR KTMB (Issued: Wed, February 10th 2016 6:27 PM UTC)
TAF KTMB 101725Z 1018/1118 34008KT P6SM BKN050 BKN250
      FM110000 31006KT P6SM SKC
      FM111400 02010KT P6SM SKC
     
METAR FOR KTMB (Issued: Wed, February 10th 2016 6:53 PM UTC):
KTMB 101853Z 32008KT 10SM CLR 17/07 A3020 RMK AO2 SLP227 T01720072

This weather information is provided by the National Weather Service.
It is automatically refreshed every three minutes.
TAF FOR KHST (Issued: Wed, February 10th 2016 5:23 PM UTC)
TAF
      AMD KHST 101715Z 1017/1122 33012KT 9999 BKN050 QNH3020INS
      TEMPO 1017/1024 35015G25KT
      BECMG 1023/1024 30009KT 9999 SCT250 QNH3020INS
      BECMG 1114/1115 01012KT 9999 SKC QNH3022INS TX20/1021Z TN06/1112Z
      AMD 101715
     
METAR FOR KHST (Issued: Wed, February 10th 2016 6:58 PM UTC):
KHST 101858Z AUTO 29007G15KT 9SM CLR 19/08 A3019 RMK AO2 SLP226 T01880078

This weather information is provided by the National Weather Service.
It is automatically refreshed every three minutes.
TAF FOR KOPF (Issued: Wed, February 10th 2016 6:27 PM UTC)
TAF KOPF 101725Z 1018/1118 30008KT P6SM FEW050 SCT300
      FM110000 31006KT P6SM SKC
      FM111400 35008KT P6SM SKC
     
METAR FOR KOPF (Issued: Wed, February 10th 2016 6:53 PM UTC):
KOPF 101853Z 33009KT 10SM CLR 18/04 A3020 RMK AO2 SLP227 T01780044

This weather information is provided by the National Weather Service.
It is automatically refreshed every three minutes.
TAF FOR KMIA (Issued: Wed, February 10th 2016 6:30 PM UTC)
TAF KMIA 101725Z 1018/1118 34008KT P6SM FEW050 SCT250
      FM110000 31005KT P6SM SKC
      FM111400 34008KT P6SM SKC
     
METAR FOR KMIA (Issued: Wed, February 10th 2016 6:53 PM UTC):
KMIA 101853Z 26007KT 10SM BKN300 17/06 A3020 RMK AO2 SLP225 T01720056

This weather information is provided by the National Weather Service.
It is automatically refreshed every three minutes.
Design by Ariel Llizo
© Dean International Inc. 2012